Location: ?????
(44.4284°N, 135.2222°E)
Time: 02:29:09
(UTC+00:00)

Cosmos 1680 Rocket - Pass Details

Date: 19 May 2025
Orbit: 757 x 776 km, 74.1° (Epoch: 14 June)

Event Time Altitude Azimuth Distance (km) Brightness Sun altitude
Exits shadow 15:58:36 36° 266° (W) 1,205 4.3 -24.1°
Maximum altitude 15:59:46 41° 298° (WNW) 1,107 4.3 -24.0°
Drops below altitude 10° 16:04:41 10° 8° (N) 2,304 7.0 -23.7°
Sets 16:07:12 0° 16° (NNE) 3,231 8.2 -23.6°
